Weather History for Chino, CA

Change the Weather History Date:

Thursday, November 1, 2012

  Actual Average Record
Temperature  
Mean Temperature 60 °F -  
Max Temperature 73 °F 72 °F 90 °F (1999)
Min Temperature 48 °F 44 °F 39 °F (2000)
Degree Days  
Heating Degree Days 5    
Growing Degree Days 10 (Base 50)    
Moisture  
Dew Point 51 °F    
Average Humidity 85    
Maximum Humidity 100    
Minimum Humidity 44    
Precipitation  
Precipitation 0.00 in - - ()
Sea Level Pressure  
Sea Level Pressure 30.01 in    
Wind  
Wind Speed 2 mph (WNW)    
Max Wind Speed 12 mph    
Max Gust Speed -    
Visibility 2 miles    
Events Fog    
Averages and records for this station are not official NWS values.
T = Trace of Precipitation, MM = Missing Value Source: NWS Daily Summary

Daily Weather History Graph

Daily Weather History Graph

Search for Another Location

Airport:

Trip Planner

Search our weather history database for the weather conditions in past years. The results will help you decide how hot, cold, wet, or windy it might be!

Date:

Astronomy

Nov. 01, 2012 Rise Set
Actual Time 7:10 AM PDT 5:57 PM PDT
Civil Twilight 6:44 AM PDT 6:23 PM PDT
Nautical Twilight 6:15 AM PDT 6:52 PM PDT
Astronomical Twilight 5:45 AM PDT 7:21 PM PDT
Moon 8:03 PM PDT (11/1) 9:41 AM PDT (11/1)
Length of Visible Light 11h 38m
Length of Day
10h 46m
Waning Gibbous, 92% of the Moon is Illuminated
Nov 1
Waning Gibbous
Nov 6
Last Quarter
Nov 13
New
Nov 20
First Quarter
Nov 28
Full

Hourly Weather History & Observations

Time (PDT) Temp. Dew Point Humidity Pressure Visibility Wind Dir Wind Speed Gust Speed Precip Events Conditions
12:49 AM 53.6 °F 51.8 °F 94% 30.02 in 1.2 mi Calm Calm - N/A   Clear
12:53 AM 54.0 °F 52.0 °F 93% 30.01 in 1.0 mi Calm Calm - N/A   Clear
1:14 AM 51.8 °F 51.8 °F 100% 30.02 in 0.8 mi Calm Calm - N/A   Mist
1:21 AM 53.6 °F 51.8 °F 94% 30.02 in 0.2 mi Calm Calm - N/A Fog Fog
1:32 AM 50.0 °F 48.2 °F 94% 30.02 in 0.2 mi Calm Calm - N/A Fog Fog
1:53 AM 52.0 °F 50.0 °F 93% 30.01 in 0.2 mi Calm Calm - N/A Fog Fog
2:16 AM 48.2 °F 48.2 °F 100% 30.02 in 0.2 mi Calm Calm - N/A Fog Fog
2:50 AM 50.0 °F 48.2 °F 94% 30.02 in 0.2 mi West 3.5 mph - N/A Fog Fog
2:53 AM 51.1 °F 48.9 °F 92% 30.01 in 0.2 mi West 4.6 mph - N/A Fog Fog
3:03 AM 51.8 °F 51.8 °F 100% 30.01 in 0.2 mi West 3.5 mph - N/A Fog Fog
3:53 AM 53.1 °F 52.0 °F 96% 29.99 in 0.2 mi WNW 3.5 mph - N/A Fog Fog
4:53 AM 53.1 °F 52.0 °F 96% 30.00 in 0.2 mi West 3.5 mph - N/A Fog Fog
5:53 AM 53.1 °F 53.1 °F 100% 30.01 in 0.2 mi Calm Calm - N/A Fog Fog
6:53 AM 54.0 °F 53.1 °F 97% 30.01 in 0.2 mi Calm Calm - N/A Fog Fog
7:53 AM 54.0 °F 53.1 °F 97% 30.03 in 0.2 mi Calm Calm - N/A Fog Fog
8:53 AM 54.0 °F 53.1 °F 97% 30.04 in 0.5 mi Calm Calm - N/A Fog Fog
9:15 AM 53.6 °F 53.6 °F 100% 30.04 in 0.8 mi ENE 3.5 mph - N/A   Overcast
9:53 AM 55.0 °F 53.1 °F 93% 30.04 in 0.8 mi Calm Calm - N/A   Overcast
10:44 AM 55.4 °F 53.6 °F 94% 30.05 in 1.0 mi Calm Calm - N/A   Overcast
10:53 AM 55.9 °F 53.1 °F 90% 30.04 in 1.0 mi Calm Calm - N/A   Overcast
11:33 AM 59.0 °F 53.6 °F 82% 30.04 in 1.2 mi NNW 4.6 mph - N/A   Haze
11:53 AM 61.0 °F 53.1 °F 75% 30.03 in 1.5 mi North 5.8 mph - N/A   Haze
12:13 PM 64.4 °F 53.6 °F 68% 30.02 in 2.5 mi NNW 4.6 mph - N/A   Haze
12:33 PM 66.2 °F 53.6 °F 64% 30.01 in 3.0 mi Variable 3.5 mph - N/A   Haze
12:53 PM 68.0 °F 54.0 °F 61% 29.99 in 3.0 mi Variable 4.6 mph - N/A   Haze
1:53 PM 69.1 °F 52.0 °F 54% 29.96 in 4.0 mi Variable 3.5 mph - N/A   Haze
2:53 PM 72.0 °F 48.9 °F 44% 29.95 in 4.0 mi West 8.1 mph - N/A   Haze
4:53 PM 68.0 °F 50.0 °F 52% 29.95 in 5.0 mi West 11.5 mph - N/A   Haze
5:53 PM 64.9 °F 51.1 °F 61% 29.95 in 8.0 mi WSW 9.2 mph - N/A   Mostly Cloudy
6:53 PM 60.1 °F 51.1 °F 72% 29.96 in 8.0 mi WSW 4.6 mph - N/A   Mostly Cloudy
7:53 PM 57.0 °F 51.1 °F 81% 29.97 in 8.0 mi West 4.6 mph - N/A   Clear
8:53 PM 55.0 °F 50.0 °F 83% 29.99 in 5.0 mi WNW 3.5 mph - N/A   Haze
9:53 PM 53.1 °F 50.0 °F 89% 30.00 in 5.0 mi West 3.5 mph - N/A   Clear
10:53 PM 53.1 °F 50.0 °F 89% 30.00 in 3.0 mi Calm Calm - N/A   Clear
11:18 PM 51.8 °F 50.0 °F 94% 30.00 in 2.0 mi Calm Calm - N/A   Clear
11:53 PM 51.1 °F 48.9 °F 92% 30.00 in 2.5 mi Calm Calm - N/A   Clear